Regional Weather Roundup
Issued by NWS Goodland, KS

Home | Current Version | Previous Version | Graphics & Text | Print | Product List | Glossary On
Versions: 1 2 3 4 5 6 7 8 9 10 11 12 13 14 15 16 17 18 19 20 21 22 23 24 25 26 27 28 29 30 31 32 33 34 35 36 37 38 39 40 41 42 43 44 45 46 47 48 49 50
173
ASUS43 KGLD 052159
RWRGLD

GOODLAND FORECAST AREA HOURLY WEATHER ROUNDUP
NATIONAL WEATHER SERVICE GOODLAND KS
300 PM MST FRI FEB 05 2016

...OFFICIAL OBSERVATIONS...

CITY           SKY/WX    TMP DP  RH WIND       PRES   REMARKS
GOODLAND KS    SUNNY     36  21  54 NW17      30.25S
HILL CITY KS   SUNNY     38  26  62 NW13      30.25S
IMPERIAL NEB   SUNNY     36  23  59 NW16      30.24R
MCCOOK NEB     SUNNY     36  25  64 NW13      30.24R
AKRON CO       SUNNY     30  20  66 NW15      30.26R WCI  19
BURLINGTON CO  SUNNY     33  19  56 NW17      30.26S
LIMON CO       SUNNY     27  16  63 W8        30.27S
$$

...UNOFFICIAL OBSERVATIONS...

CITY           SKY/WX    TMP DP  RH WIND       PRES   REMARKS
COLBY KS       SUNNY     36  28  75 NW14      30.26R
GOVE KS          N/A     39  32  76 MISG        N/A
LENORA KS        N/A     36  32  85 MISG        N/A
NORTON KS      SUNNY     37  27  65 W13       30.23
SHARON SPRINGS   N/A     37  25  62 NW12        N/A
KIT CARSON CO    N/A     34  20  57 MISG        N/A
YUMA CO          N/A     32  24  71 NW15        N/A
$$




USA.gov is the U.S. government's official web portal to all federal, state and local government web resources and services.